Weather History for Marathon, FL

Change the Weather History Date:

Saturday, April 6, 2013

  Actual Average Record
Temperature  
Mean Temperature 72 °F 76 °F  
Max Temperature 77 °F 82 °F 90 °F (2009)
Min Temperature 67 °F 71 °F 64 °F (2004)
Degree Days  
Heating Degree Days 0 0  
Month to date heating degree days 0 0  
Since 1 July heating degree days 36 81  
Cooling Degree Days 7 11  
Month to date cooling degree days 80 66  
Year to date cooling degree days 868 731  
Growing Degree Days 22 (Base 50)    
Moisture  
Dew Point 58 °F    
Average Humidity 62    
Maximum Humidity 73    
Minimum Humidity 50    
Precipitation  
Precipitation 0.00 in 0.08 in 0.40 in (2007)
Month to date precipitation 1.89 0.46  
Year to date precipitation 5.66 6.67  
Snow  
Snow 0.00 in - - ()
Month to date snowfall 0.0  
Since 1 July snowfall 0.0  
Snow Depth 0.00 in    
Sea Level Pressure  
Sea Level Pressure 30.02 in    
Wind  
Wind Speed 9 mph (NNW)    
Max Wind Speed 17 mph    
Max Gust Speed 25 mph    
Visibility 10 miles    
Events      
T = Trace of Precipitation, MM = Missing Value Source: NWS Daily Summary

Daily Weather History Graph

Daily Weather History Graph

Search for Another Location

Airport:

Trip Planner

Search our weather history database for the weather conditions in past years. The results will help you decide how hot, cold, wet, or windy it might be!

Date:

Astronomy

Apr. 06, 2013 Rise Set
Actual Time 7:10 AM EDT 7:42 PM EDT
Civil Twilight 6:47 AM EDT 8:05 PM EDT
Nautical Twilight 6:20 AM EDT 8:32 PM EDT
Astronomical Twilight 5:53 AM EDT 9:00 PM EDT
Moon 4:30 AM EDT (4/6) 4:29 PM EDT (4/6)
Length of Visible Light 13h 18m
Length of Day
12h 32m
Waning Crescent, 15% of the Moon is Illuminated
Apr 6
Waning Crescent
Apr 10
New
Apr 18
First Quarter
Apr 25
Full
May 2
Last Quarter

Hourly Weather History & Observations

Time (EDT) Temp. Dew Point Humidity Pressure Visibility Wind Dir Wind Speed Gust Speed Precip Events Conditions
12:53 AM 71.1 °F 59.0 °F 66% 29.98 in 10.0 mi NW 11.5 mph - N/A   Mostly Cloudy
1:53 AM 70.0 °F 57.9 °F 65% 29.97 in 10.0 mi NNW 12.7 mph 19.6 mph N/A   Scattered Clouds
2:42 AM 69.8 °F 57.2 °F 64% 29.97 in 10.0 mi NW 12.7 mph 25.3 mph N/A   Mostly Cloudy
2:53 AM 69.1 °F 57.0 °F 65% 29.96 in 10.0 mi NW 12.7 mph 23.0 mph N/A   Scattered Clouds
3:30 AM 69.8 °F 55.4 °F 60% 29.96 in 10.0 mi NNW 12.7 mph 23.0 mph N/A   Mostly Cloudy
3:41 AM 69.8 °F 55.4 °F 60% 29.96 in 10.0 mi NNW 13.8 mph 25.3 mph N/A   Scattered Clouds
3:53 AM 69.1 °F 55.9 °F 63% 29.96 in 10.0 mi NNW 12.7 mph 21.9 mph N/A   Scattered Clouds
4:53 AM 69.1 °F 54.0 °F 58% 29.97 in 10.0 mi NNW 12.7 mph 20.7 mph N/A   Partly Cloudy
5:53 AM 68.0 °F 57.0 °F 68% 29.97 in 10.0 mi North 11.5 mph 19.6 mph N/A   Mostly Cloudy
6:53 AM 66.9 °F 55.9 °F 68% 29.99 in 10.0 mi North 11.5 mph - N/A   Mostly Cloudy
7:53 AM 66.9 °F 57.0 °F 70% 30.02 in 10.0 mi North 11.5 mph 19.6 mph N/A   Mostly Cloudy
8:12 AM 66.2 °F 57.2 °F 73% 30.02 in 10.0 mi North 12.7 mph 19.6 mph N/A   Mostly Cloudy
8:28 AM 66.2 °F 57.2 °F 73% 30.03 in 10.0 mi North 10.4 mph 17.3 mph N/A   Mostly Cloudy
8:53 AM 66.9 °F 57.0 °F 70% 30.03 in 10.0 mi North 8.1 mph 16.1 mph N/A   Mostly Cloudy
9:40 AM 69.8 °F 57.2 °F 64% 30.04 in 10.0 mi NNE 9.2 mph 16.1 mph N/A   Mostly Cloudy
9:53 AM 69.1 °F 57.0 °F 65% 30.04 in 10.0 mi NNE 11.5 mph - N/A   Mostly Cloudy
10:08 AM 69.8 °F 57.2 °F 64% 30.05 in 10.0 mi North 9.2 mph - N/A   Mostly Cloudy
10:53 AM 73.0 °F 57.0 °F 57% 30.06 in 10.0 mi North 8.1 mph - N/A   Mostly Cloudy
11:53 AM 73.9 °F 57.0 °F 55% 30.07 in 10.0 mi North 8.1 mph - N/A   Scattered Clouds
12:38 PM 73.4 °F 57.2 °F 57% 30.07 in 10.0 mi Variable 6.9 mph - N/A   Mostly Cloudy
12:45 PM 75.2 °F 57.2 °F 53% 30.07 in 10.0 mi North 8.1 mph - N/A   Scattered Clouds
12:53 PM 75.0 °F 57.0 °F 53% 30.07 in 10.0 mi North 8.1 mph - N/A   Partly Cloudy
1:53 PM 75.0 °F 57.0 °F 53% 30.04 in 10.0 mi Variable 5.8 mph - N/A   Clear
2:53 PM 77.0 °F 57.9 °F 52% 30.04 in 10.0 mi Variable 4.6 mph - N/A   Clear
3:53 PM 75.9 °F 57.9 °F 54% 30.03 in 10.0 mi NW 6.9 mph - N/A   Clear
4:53 PM 75.9 °F 59.0 °F 56% 30.01 in 10.0 mi NNW 9.2 mph - N/A   Clear
5:53 PM 75.0 °F 59.0 °F 57% 30.01 in 10.0 mi NNW 9.2 mph - N/A   Clear
6:06 PM 75.2 °F 59.0 °F 57% 30.01 in 10.0 mi NNW 6.9 mph - N/A   Partly Cloudy
6:53 PM 73.0 °F 59.0 °F 61% 30.02 in 10.0 mi NNW 6.9 mph - N/A   Clear
7:53 PM 72.0 °F 60.1 °F 66% 30.03 in 10.0 mi Variable 4.6 mph - N/A   Clear
8:53 PM 73.0 °F 61.0 °F 66% 30.05 in 10.0 mi Variable 3.5 mph - N/A   Scattered Clouds
9:18 PM 73.4 °F 62.6 °F 69% 30.06 in 10.0 mi NNW 5.8 mph - N/A   Mostly Cloudy
9:31 PM 73.4 °F 62.6 °F 69% 30.06 in 10.0 mi NNW 5.8 mph - N/A   Mostly Cloudy
9:43 PM 73.4 °F 62.6 °F 69% 30.06 in 10.0 mi NNW 6.9 mph - N/A   Mostly Cloudy
9:53 PM 73.0 °F 62.1 °F 68% 30.06 in 10.0 mi NNW 5.8 mph - N/A   Scattered Clouds
10:53 PM 77.0 °F 62.1 °F 60% 30.07 in 10.0 mi East 9.2 mph - N/A   Mostly Cloudy
11:53 PM 75.9 °F 62.1 °F 62% 30.07 in 10.0 mi ENE 6.9 mph - N/A   Mostly Cloudy